QPF
0.00 0.00 0.00 0.00 0.00 0.00 0.00 0.00 0.00 0.00 0.00 0.00 0.00 0.00 0.00 0.00 0.00 0.00 0.01 0.01 0.01 0.00 0.01 0.01 0.01 0.01 0.00 0.00 0.01 0.02 0.02 0.02 0.02 0.04 0.05 0.07 0.10 0.09 0.10 0.10 0.04 0.02 0.01 0.01
0.00 0.00 0.00 0.00 0.00 0.00 0.00 0.00 0.00 0.00 0.00 0.00 0.00 0.00 0.00 0.00 0.00 0.00 0.00 0.00 0.01 0.01 0.01 0.01 0.01 0.01 0.01 0.01 0.02 0.02 0.02 0.01 0.02 0.03 0.04 0.07 0.09 0.08 0.06 0.07 0.07 0.03 0.01 0.01
0.00 0.00 0.00 0.00 0.00 0.00 0.00 0.00 0.00 0.01 0.00 0.00 0.00 0.00 0.00 0.00 0.00 0.00 0.00 0.00 0.00 0.00 0.01 0.01 0.01 0.02 0.02 0.02 0.02 0.02 0.02 0.01 0.01 0.02 0.04 0.06 0.07 0.08 0.06 0.04 0.04 0.04 0.02 0.01
0.00 0.00 0.00 0.00 0.00 0.00 0.00 0.00 0.00 0.00 0.00 0.00 0.00 0.00 0.00 0.00 0.00 0.00 0.00 0.00 0.00 0.00 0.00 0.01 0.01 0.02 0.02 0.03 0.03 0.02 0.02 0.01 0.01 0.02 0.03 0.04 0.05 0.05 0.05 0.04 0.03 0.03 0.02 0.01
0.00 0.00 0.00 0.00 0.00 0.00 0.00 0.00 0.00 0.00 0.00 0.00 0.00 0.00 0.00 0.00 0.00 0.00 0.00 0.00 0.00 0.00 0.00 0.00 0.00 0.01 0.02 0.02 0.03 0.03 0.02 0.02 0.01 0.01 0.02 0.02 0.03 0.03 0.03 0.03 0.03 0.03 0.03 0.02
0.00 0.00 0.00 0.00 0.00 0.00 0.00 0.00 0.00 0.00 0.00 0.00 0.00 0.00 0.00 0.00 0.00 0.00 0.00 0.00 0.00 0.00 0.00 0.00 0.00 0.01 0.01 0.02 0.03 0.03 0.03 0.02 0.02 0.02 0.02 0.02 0.02 0.03 0.02 0.02 0.02 0.03 0.03 0.03
0.00 0.00 0.00 0.00 0.00 0.00 0.01 0.01 0.01 0.01 0.01 0.00 0.00 0.00 0.01 0.00 0.00 0.00 0.00 0.00 0.00 0.00 0.00 0.00 0.00 0.01 0.01 0.02 0.03 0.04 0.03 0.03 0.03 0.03 0.03 0.03 0.04 0.04 0.03 0.02 0.02 0.02 0.03 0.03
0.00 0.00 0.00 0.00 0.00 0.00 0.01 0.01 0.01 0.01 0.01 0.00 0.00 0.00 0.00 0.00 0.00 0.00 0.00 0.00 0.00 0.00 0.00 0.01 0.01 0.01 0.02 0.03 0.03 0.04 0.04 0.03 0.03 0.03 0.04 0.04 0.04 0.05 0.04 0.03 0.03 0.03 0.03 0.03
0.01 0.00 0.00 0.00 0.00 0.00 0.00 0.00 0.00 0.01 0.01 0.00 0.00 0.00 0.00 0.00 0.00 0.00 0.00 0.00 0.00 0.00 0.00 0.00 0.00 0.00 0.01 0.03 0.03 0.04 0.03 0.02 0.02 0.02 0.03 0.04 0.05 0.06 0.06 0.06 0.05 0.05 0.04 0.04
0.01 0.00 0.00 0.00 0.00 0.00 0.00 0.00 0.00 0.01 0.01 0.00 0.00 0.00 0.00 0.00 0.00 0.00 0.00 0.00 0.00 0.00 0.00 0.00 0.00 0.00 0.00 0.02 0.02 0.03 0.03 0.04 0.04 0.03 0.02 0.03 0.03 0.05 0.06 0.07 0.07 0.06 0.05 0.04
0.00 0.01 0.00 0.00 0.00 0.00 0.00 0.00 0.00 0.00 0.00 0.01 0.01 0.00 0.01 0.00 0.00 0.00 0.00 0.00 0.00 0.00 0.01 0.01 0.02 0.01 0.02 0.02 0.02 0.02 0.02 0.03 0.05 0.04 0.03 0.02 0.03 0.03 0.04 0.05 0.06 0.05 0.05 0.05
0.01 0.01 0.00 0.00 0.00 0.00 0.00 0.00 0.00 0.00 0.00 0.01 0.01 0.01 0.01 0.00 0.00 0.00 0.00 0.00 0.00 0.00 0.00 0.00 0.01 0.01 0.02 0.03 0.04 0.03 0.02 0.03 0.04 0.04 0.02 0.02 0.03 0.05 0.05 0.05 0.05 0.05 0.05 0.05
0.01 0.02 0.01 0.00 0.00 0.00 0.00 0.00 0.00 0.00 0.01 0.01 0.01 0.01 0.00 0.00 0.00 0.00 0.00 0.00 0.00 0.00 0.00 0.00 0.00 0.00 0.01 0.01 0.03 0.04 0.04 0.03 0.03 0.03 0.03 0.02 0.03 0.05 0.05 0.05 0.05 0.06 0.05 0.04
0.02 0.03 0.02 0.01 0.01 0.01 0.01 0.00 0.00 0.01 0.02 0.01 0.01 0.01 0.00 0.00 0.00 0.00 0.00 0.00 0.00 0.00 0.00 0.00 0.00 0.00 0.00 0.00 0.01 0.02 0.02 0.03 0.03 0.03 0.02 0.03 0.02 0.03 0.04 0.04 0.05 0.05 0.06 0.05
0.02 0.03 0.02 0.01 0.01 0.01 0.01 0.00 0.00 0.01 0.01 0.01 0.01 0.01 0.01 0.00 0.00 0.00 0.00 0.00 0.00 0.00 0.00 0.00 0.00 0.00 0.00 0.00 0.00 0.01 0.01 0.02 0.02 0.03 0.03 0.02 0.02 0.02 0.03 0.04 0.05 0.05 0.05 0.05
0.02 0.02 0.01 0.01 0.00 0.00 0.00 0.00 0.00 0.00 0.00 0.00 0.00 0.00 0.00 0.00 0.00 0.00 0.00 0.00 0.00 0.00 0.00 0.00 0.00 0.00 0.00 0.00 0.00 0.00 0.00 0.01 0.01 0.01 0.02 0.02 0.01 0.01 0.01 0.02 0.02 0.02 0.03 0.03
0.01 0.02 0.02 0.01 0.00 0.01 0.01 0.00 0.00 0.00 0.00 0.00 0.00 0.00 0.00 0.00 0.00 0.00 0.00 0.00 0.00 0.00 0.00 0.00 0.00 0.00 0.00 0.00 0.00 0.00 0.00 0.00 0.01 0.01 0.01 0.02 0.02 0.01 0.01 0.01 0.01 0.01 0.01 0.01
0.01 0.02 0.04 0.02 0.01 0.02 0.00 0.00 0.00 0.00 0.00 0.00 0.00 0.00 0.00 0.00 0.00 0.00 0.00 0.00 0.00 0.00 0.00 0.00 0.00 0.00 0.00 0.00 0.00 0.00 0.00 0.00 0.00 0.00 0.01 0.01 0.01 0.01 0.01 0.01 0.01 0.00 0.00 0.00
0.01 0.02 0.03 0.04 0.03 0.02 0.01 0.00 0.01 0.01 0.01 0.00 0.00 0.00 0.00 0.00 0.00 0.00 0.00 0.00 0.00 0.00 0.00 0.00 0.00 0.00 0.00 0.00 0.00 0.00 0.00 0.00 0.00 0.00 0.00 0.00 0.01 0.01 0.01 0.01 0.01 0.01 0.01 0.01
0.01 0.01 0.04 0.04 0.04 0.02 0.01 0.00 0.00 0.01 0.02 0.01 0.00 0.00 0.00 0.00 0.01 0.01 0.01 0.00 0.00 0.00 0.00 0.00 0.00 0.00 0.00 0.00 0.00 0.00 0.00 0.00 0.00 0.00 0.00 0.00 0.00 0.00 0.01 0.01 0.01 0.02 0.02 0.01
0.02 0.04 0.05 0.05 0.05 0.03 0.02 0.01 0.01 0.03 0.03 0.01 0.01 0.01 0.01 0.01 0.01 0.01 0.00 0.00 0.00 0.00 0.00 0.00 0.00 0.00 0.00 0.00 0.00 0.00 0.00 0.00 0.00 0.00 0.00 0.00 0.00 0.00 0.01 0.01 0.01 0.01 0.01 0.01
0.04 0.04 0.05 0.05 0.07 0.07 0.04 0.02 0.04 0.05 0.03 0.02 0.01 0.01 0.01 0.01 0.01 0.00 0.00 0.00 0.00 0.00 0.00 0.00 0.00 0.00 0.00 0.00 0.00 0.00 0.00 0.00 0.00 0.00 0.00 0.00 0.01 0.01 0.01 0.01 0.01 0.01 0.01 0.02
0.06 0.07 0.06 0.06 0.06 0.05 0.04 0.04 0.04 0.03 0.02 0.02 0.02 0.02 0.01 0.01 0.01 0.01 0.01 0.00 0.00 0.00 0.00 0.00 0.00 0.00 0.00 0.00 0.00 0.00 0.00 0.00 0.00 0.00 0.00 0.00 0.00 0.01 0.01 0.01 0.01 0.01 0.01 0.01
0.05 0.05 0.06 0.07 0.07 0.05 0.04 0.05 0.05 0.03 0.03 0.03 0.02 0.02 0.02 0.02 0.02 0.02 0.01 0.01 0.01 0.01 0.01 0.00 0.00 0.00 0.00 0.00 0.00 0.00 0.00 0.00 0.00 0.00 0.00 0.00 0.00 0.00 0.00 0.01 0.01 0.01 0.01 0.01
0.02 0.03 0.04 0.05 0.05 0.05 0.04 0.04 0.03 0.03 0.02 0.02 0.02 0.02 0.02 0.02 0.02 0.02 0.01 0.01 0.01 0.01 0.01 0.01 0.01 0.00 0.00 0.00 0.00 0.00 0.00 0.01 0.00 0.00 0.00 0.00 0.00 0.00 0.00 0.00 0.00 0.01 0.01 0.01
0.01 0.03 0.05 0.06 0.04 0.03 0.04 0.02 0.02 0.01 0.01 0.01 0.02 0.03 0.03 0.02 0.02 0.02 0.01 0.01 0.01 0.01 0.01 0.01 0.00 0.00 0.00 0.01 0.01 0.01 0.00 0.00 0.00 0.01 0.00 0.00 0.00 0.01 0.01 0.01 0.01 0.00 0.01 0.01
MSLP
1020.52 1020.71 1020.82 1020.83 1020.72 1020.51 1020.21 1019.83 1019.42 1019.00 1018.59 1018.21 1017.86 1017.54 1017.23 1016.90 1016.52 1016.07 1015.54 1014.92 1014.23 1013.50 1012.76 1012.06 1011.45 1010.96 1010.61 1010.43 1010.41 1010.53 1010.78 1011.13 1011.56 1012.04 1012.55 1013.08 1013.59 1014.09 1014.55 1014.97 1015.34 1015.68 1015.99 1016.30
1020.65 1020.73 1020.73 1020.63 1020.44 1020.19 1019.89 1019.56 1019.23 1018.91 1018.61 1018.33 1018.06 1017.79 1017.50 1017.16 1016.76 1016.28 1015.72 1015.07 1014.35 1013.60 1012.83 1012.11 1011.47 1010.94 1010.56 1010.35 1010.32 1010.45 1010.73 1011.14 1011.64 1012.20 1012.79 1013.39 1013.95 1014.47 1014.94 1015.34 1015.69 1016.01 1016.30 1016.59
1020.78 1020.75 1020.62 1020.43 1020.17 1019.90 1019.63 1019.37 1019.14 1018.93 1018.74 1018.55 1018.34 1018.09 1017.79 1017.42 1016.97 1016.44 1015.83 1015.16 1014.42 1013.66 1012.90 1012.18 1011.54 1011.00 1010.61 1010.39 1010.34 1010.47 1010.76 1011.19 1011.74 1012.35 1012.99 1013.62 1014.22 1014.77 1015.24 1015.65 1015.99 1016.30 1016.59 1016.88
1020.94 1020.80 1020.58 1020.30 1020.01 1019.75 1019.52 1019.35 1019.23 1019.13 1019.03 1018.91 1018.72 1018.47 1018.12 1017.69 1017.16 1016.55 1015.89 1015.17 1014.43 1013.68 1012.95 1012.26 1011.65 1011.14 1010.76 1010.53 1010.47 1010.58 1010.86 1011.28 1011.82 1012.43 1013.08 1013.73 1014.35 1014.90 1015.39 1015.80 1016.16 1016.49 1016.79 1017.09
1021.14 1020.92 1020.63 1020.31 1020.01 1019.78 1019.62 1019.55 1019.53 1019.53 1019.51 1019.42 1019.23 1018.93 1018.50 1017.96 1017.33 1016.64 1015.91 1015.16 1014.42 1013.69 1013.01 1012.38 1011.82 1011.35 1010.99 1010.76 1010.68 1010.75 1010.99 1011.37 1011.87 1012.44 1013.06 1013.69 1014.30 1014.85 1015.34 1015.78 1016.16 1016.51 1016.85 1017.18
1021.38 1021.11 1020.78 1020.46 1020.19 1020.01 1019.93 1019.95 1020.03 1020.11 1020.13 1020.05 1019.83 1019.45 1018.92 1018.26 1017.51 1016.72 1015.93 1015.15 1014.42 1013.74 1013.12 1012.56 1012.07 1011.64 1011.31 1011.07 1010.96 1010.99 1011.15 1011.45 1011.87 1012.37 1012.93 1013.51 1014.08 1014.62 1015.12 1015.58 1015.99 1016.38 1016.76 1017.13
1021.66 1021.36 1021.03 1020.72 1020.50 1020.39 1020.41 1020.51 1020.67 1020.79 1020.83 1020.73 1020.45 1019.98 1019.34 1018.56 1017.71 1016.84 1015.99 1015.20 1014.49 1013.87 1013.32 1012.83 1012.40 1012.03 1011.71 1011.47 1011.31 1011.26 1011.33 1011.52 1011.83 1012.23 1012.71 1013.23 1013.75 1014.27 1014.77 1015.24 1015.69 1016.12 1016.54 1016.96
1021.92 1021.63 1021.32 1021.06 1020.90 1020.87 1020.95 1021.13 1021.32 1021.47 1021.51 1021.36 1021.01 1020.45 1019.71 1018.85 1017.92 1016.99 1016.12 1015.34 1014.67 1014.10 1013.63 1013.21 1012.84 1012.50 1012.19 1011.91 1011.70 1011.56 1011.52 1011.60 1011.79 1012.08 1012.46 1012.89 1013.37 1013.86 1014.35 1014.84 1015.31 1015.78 1016.24 1016.70
1022.16 1021.89 1021.63 1021.42 1021.32 1021.35 1021.48 1021.69 1021.90 1022.04 1022.03 1021.84 1021.42 1020.79 1019.99 1019.07 1018.11 1017.17 1016.31 1015.57 1014.96 1014.46 1014.04 1013.69 1013.36 1013.04 1012.71 1012.40 1012.11 1011.88 1011.73 1011.68 1011.75 1011.93 1012.21 1012.57 1012.99 1013.45 1013.93 1014.41 1014.90 1015.39 1015.88 1016.37
1022.35 1022.12 1021.91 1021.76 1021.71 1021.77 1021.92 1022.12 1022.31 1022.40 1022.34 1022.08 1021.61 1020.94 1020.11 1019.19 1018.25 1017.35 1016.55 1015.88 1015.33 1014.90 1014.55 1014.24 1013.93 1013.61 1013.26 1012.89 1012.53 1012.20 1011.95 1011.80 1011.76 1011.83 1012.02 1012.31 1012.67 1013.08 1013.54 1014.01 1014.50 1014.99 1015.49 1016.00
1022.47 1022.30 1022.15 1022.04 1022.02 1022.09 1022.22 1022.37 1022.48 1022.50 1022.36 1022.04 1021.53 1020.85 1020.04 1019.17 1018.31 1017.50 1016.80 1016.22 1015.76 1015.40 1015.10 1014.82 1014.51 1014.17 1013.78 1013.36 1012.93 1012.53 1012.19 1011.94 1011.81 1011.80 1011.91 1012.12 1012.43 1012.79 1013.21 1013.65 1014.11 1014.59 1015.08 1015.58
1022.53 1022.43 1022.33 1022.27 1022.25 1022.28 1022.35 1022.41 1022.42 1022.33 1022.11 1021.73 1021.20 1020.54 1019.79 1019.01 1018.26 1017.59 1017.01 1016.55 1016.19 1015.90 1015.64 1015.37 1015.06 1014.69 1014.26 1013.79 1013.30 1012.83 1012.43 1012.11 1011.91 1011.83 1011.87 1012.02 1012.26 1012.57 1012.94 1013.33 1013.75 1014.19 1014.65 1015.12
1022.57 1022.53 1022.48 1022.43 1022.39 1022.36 1022.33 1022.27 1022.15 1021.94 1021.62 1021.18 1020.64 1020.03 1019.37 1018.72 1018.12 1017.60 1017.17 1016.83 1016.57 1016.34 1016.11 1015.86 1015.53 1015.14 1014.67 1014.16 1013.63 1013.12 1012.67 1012.31 1012.06 1011.92 1011.91 1011.99 1012.17 1012.41 1012.70 1013.03 1013.39 1013.78 1014.19 1014.63
1022.58 1022.60 1022.58 1022.52 1022.44 1022.33 1022.18 1021.97 1021.71 1021.36 1020.95 1020.46 1019.93 1019.37 1018.83 1018.32 1017.89 1017.53 1017.25 1017.04 1016.87 1016.70 1016.50 1016.25 1015.91 1015.49 1015.01 1014.47 1013.92 1013.39 1012.92 1012.53 1012.24 1012.06 1011.99 1012.01 1012.11 1012.27 1012.49 1012.75 1013.04 1013.36 1013.72 1014.12
1022.57 1022.63 1022.62 1022.54 1022.39 1022.17 1021.89 1021.53 1021.12 1020.66 1020.15 1019.64 1019.12 1018.64 1018.21 1017.86 1017.59 1017.39 1017.26 1017.17 1017.08 1016.96 1016.79 1016.53 1016.19 1015.76 1015.26 1014.72 1014.17 1013.64 1013.16 1012.76 1012.45 1012.23 1012.10 1012.05 1012.08 1012.16 1012.29 1012.47 1012.69 1012.95 1013.26 1013.61
1022.55 1022.61 1022.58 1022.45 1022.22 1021.89 1021.47 1020.98 1020.43 1019.86 1019.30 1018.76 1018.29 1017.89 1017.58 1017.38 1017.26 1017.21 1017.21 1017.21 1017.19 1017.12 1016.96 1016.72 1016.37 1015.94 1015.45 1014.92 1014.39 1013.87 1013.40 1012.99 1012.66 1012.40 1012.22 1012.10 1012.05 1012.05 1012.10 1012.20 1012.36 1012.56 1012.83 1013.15
1022.49 1022.52 1022.44 1022.24 1021.91 1021.46 1020.92 1020.31 1019.67 1019.02 1018.43 1017.90 1017.48 1017.17 1016.99 1016.92 1016.94 1017.01 1017.11 1017.20 1017.23 1017.19 1017.05 1016.81 1016.47 1016.06 1015.58 1015.08 1014.57 1014.08 1013.62 1013.22 1012.86 1012.57 1012.33 1012.15 1012.02 1011.94 1011.92 1011.95 1012.06 1012.22 1012.45 1012.75
1022.38 1022.35 1022.18 1021.89 1021.46 1020.91 1020.27 1019.57 1018.86 1018.19 1017.59 1017.11 1016.75 1016.55 1016.47 1016.52 1016.66 1016.83 1017.01 1017.15 1017.22 1017.20 1017.07 1016.83 1016.51 1016.11 1015.67 1015.19 1014.72 1014.25 1013.82 1013.41 1013.04 1012.71 1012.42 1012.17 1011.97 1011.83 1011.74 1011.73 1011.80 1011.94 1012.16 1012.45
1022.23 1022.09 1021.83 1021.43 1020.90 1020.27 1019.56 1018.81 1018.09 1017.42 1016.87 1016.44 1016.18 1016.07 1016.10 1016.24 1016.46 1016.70 1016.93 1017.10 1017.18 1017.16 1017.04 1016.81 1016.50 1016.12 1015.71 1015.27 1014.83 1014.39 1013.97 1013.56 1013.17 1012.81 1012.47 1012.16 1011.91 1011.71 1011.58 1011.54 1011.58 1011.71 1011.92 1012.22
1022.06 1021.80 1021.42 1020.92 1020.31 1019.62 1018.88 1018.13 1017.42 1016.80 1016.31 1015.98 1015.80 1015.78 1015.90 1016.11 1016.38 1016.66 1016.90 1017.07 1017.15 1017.12 1016.99 1016.76 1016.46 1016.11 1015.72 1015.31 1014.90 1014.48 1014.07 1013.66 1013.25 1012.86 1012.47 1012.13 1011.82 1011.58 1011.42 1011.36 1011.39 1011.51 1011.73 1012.03
1021.91 1021.53 1021.04 1020.46 1019.79 1019.07 1018.33 1017.61 1016.96 1016.42 1016.02 1015.77 1015.68 1015.74 1015.91 1016.17 1016.45 1016.73 1016.95 1017.10 1017.15 1017.10 1016.95 1016.71 1016.42 1016.08 1015.71 1015.32 1014.93 1014.53 1014.12 1013.70 1013.28 1012.85 1012.44 1012.05 1011.71 1011.44 1011.26 1011.18 1011.20 1011.32 1011.53 1011.83
1021.81 1021.34 1020.77 1020.14 1019.45 1018.73 1018.03 1017.37 1016.80 1016.35 1016.04 1015.88 1015.86 1015.97 1016.17 1016.43 1016.69 1016.93 1017.11 1017.21 1017.21 1017.12 1016.94 1016.69 1016.38 1016.05 1015.69 1015.31 1014.93 1014.53 1014.12 1013.69 1013.25 1012.80 1012.35 1011.94 1011.57 1011.28 1011.07 1010.98 1010.98 1011.09 1011.29 1011.58
1021.83 1021.29 1020.69 1020.03 1019.36 1018.68 1018.04 1017.47 1016.99 1016.63 1016.41 1016.31 1016.34 1016.47 1016.66 1016.88 1017.10 1017.28 1017.38 1017.41 1017.35 1017.20 1016.97 1016.70 1016.37 1016.03 1015.67 1015.29 1014.91 1014.50 1014.07 1013.63 1013.16 1012.69 1012.22 1011.78 1011.39 1011.08 1010.85 1010.73 1010.72 1010.81 1010.98 1011.24
1021.97 1021.42 1020.82 1020.20 1019.57 1018.96 1018.40 1017.92 1017.53 1017.26 1017.10 1017.04 1017.08 1017.19 1017.35 1017.51 1017.64 1017.73 1017.75 1017.69 1017.55 1017.34 1017.06 1016.75 1016.40 1016.03 1015.65 1015.26 1014.86 1014.43 1013.98 1013.51 1013.02 1012.52 1012.03 1011.57 1011.16 1010.82 1010.58 1010.43 1010.39 1010.44 1010.59 1010.80
1022.24 1021.73 1021.18 1020.62 1020.07 1019.55 1019.08 1018.68 1018.37 1018.16 1018.03 1017.99 1018.01 1018.07 1018.15 1018.22 1018.26 1018.25 1018.17 1018.02 1017.80 1017.52 1017.19 1016.83 1016.45 1016.05 1015.64 1015.22 1014.78 1014.31 1013.83 1013.33 1012.80 1012.28 1011.76 1011.28 1010.86 1010.50 1010.23 1010.06 1009.99 1010.00 1010.10 1010.27
1022.62 1022.18 1021.72 1021.25 1020.79 1020.36 1019.98 1019.65 1019.40 1019.21 1019.09 1019.02 1018.99 1018.99 1018.98 1018.95 1018.88 1018.76 1018.59 1018.35 1018.06 1017.72 1017.34 1016.93 1016.51 1016.06 1015.61 1015.13 1014.65 1014.14 1013.61 1013.06 1012.50 1011.95 1011.41 1010.91 1010.47 1010.10 1009.82 1009.62 1009.51 1009.50 1009.56 1009.69
Thickness
5595 5584 5578 5580 5579 5579 5575 5571 5568 5574 5580 5576 5575 5579 5587 5589 5586 5585 5584 5584 5587 5591 5594 5595 5596 5596 5595 5594 5593 5593 5593 5593 5593 5594 5595 5595 5595 5597 5599 5600 5602 5604 5605 5607
5581 5578 5585 5583 5580 5575 5571 5567 5566 5571 5576 5574 5572 5576 5584 5585 5584 5584 5583 5582 5583 5585 5587 5589 5589 5589 5588 5587 5587 5587 5586 5587 5587 5588 5588 5589 5589 5589 5591 5592 5593 5595 5596 5598
5578 5582 5585 5580 5575 5570 5568 5564 5564 5564 5568 5569 5567 5569 5577 5583 5583 5583 5583 5580 5580 5581 5582 5583 5584 5583 5582 5582 5581 5582 5580 5581 5581 5580 5580 5581 5580 5581 5582 5584 5585 5587 5588 5590
5574 5579 5579 5574 5571 5567 5562 5567 5565 5562 5554 5549 5556 5547 5568 5573 5575 5577 5577 5574 5574 5576 5578 5578 5578 5578 5578 5577 5576 5576 5575 5575 5574 5574 5575 5575 5575 5575 5576 5577 5578 5579 5580 5581
5570 5574 5572 5569 5570 5567 5562 5565 5561 5558 5551 5545 5547 5542 5556 5564 5568 5572 5572 5571 5571 5571 5572 5573 5573 5573 5573 5572 5570 5569 5569 5569 5569 5569 5570 5570 5570 5570 5569 5569 5569 5571 5572 5573
5567 5570 5569 5568 5568 5565 5561 5556 5552 5543 5537 5540 5549 5539 5549 5557 5565 5567 5567 5567 5566 5566 5567 5567 5567 5566 5566 5565 5564 5563 5563 5563 5563 5563 5564 5565 5565 5564 5563 5563 5562 5563 5564 5566
5558 5563 5566 5565 5560 5557 5552 5542 5532 5531 5526 5538 5545 5540 5549 5561 5562 5563 5561 5560 5559 5559 5559 5559 5559 5559 5559 5559 5558 5558 5558 5558 5558 5558 5558 5559 5560 5559 5559 5558 5557 5557 5557 5558
5545 5546 5558 5558 5555 5549 5545 5541 5531 5529 5526 5529 5538 5538 5551 5558 5559 5558 5556 5553 5552 5552 5551 5552 5552 5552 5553 5554 5553 5552 5552 5552 5552 5552 5553 5552 5553 5553 5553 5553 5553 5552 5552 5553
5537 5541 5553 5554 5553 5549 5541 5533 5535 5522 5518 5517 5528 5538 5549 5553 5551 5549 5547 5545 5544 5544 5544 5545 5546 5547 5548 5548 5548 5547 5547 5546 5546 5547 5546 5545 5545 5546 5546 5546 5545 5546 5546 5546
5538 5533 5542 5544 5545 5543 5540 5533 5519 5516 5517 5517 5526 5531 5535 5542 5541 5540 5538 5536 5536 5536 5536 5538 5540 5541 5542 5543 5543 5542 5541 5541 5540 5540 5539 5539 5539 5539 5540 5538 5538 5539 5539 5539
5533 5525 5527 5531 5533 5534 5530 5528 5522 5510 5507 5511 5513 5529 5541 5539 5538 5533 5531 5529 5528 5528 5529 5530 5532 5534 5535 5535 5536 5535 5534 5533 5532 5532 5532 5532 5532 5533 5533 5532 5532 5532 5532 5532
5521 5511 5507 5518 5529 5531 5529 5527 5518 5511 5509 5503 5503 5521 5539 5535 5531 5528 5525 5523 5522 5522 5522 5522 5523 5525 5526 5526 5527 5527 5526 5526 5525 5525 5524 5524 5524 5524 5524 5524 5524 5524 5524 5524
5511 5503 5499 5509 5516 5518 5518 5519 5515 5510 5502 5493 5494 5516 5529 5525 5523 5521 5519 5516 5515 5515 5515 5514 5514 5515 5516 5518 5518 5518 5518 5517 5517 5517 5516 5516 5516 5516 5516 5516 5517 5517 5517 5517
5504 5494 5495 5503 5510 5507 5506 5510 5509 5500 5492 5492 5500 5514 5521 5518 5515 5513 5511 5509 5507 5507 5507 5506 5505 5506 5507 5508 5509 5509 5509 5509 5509 5509 5508 5508 5508 5508 5508 5508 5509 5509 5508 5508
5489 5482 5486 5493 5499 5499 5500 5504 5504 5499 5497 5496 5505 5507 5515 5513 5510 5507 5504 5502 5501 5500 5500 5499 5497 5496 5498 5499 5499 5500 5500 5501 5500 5500 5499 5499 5499 5499 5499 5500 5500 5500 5499 5499
5473 5471 5475 5478 5487 5487 5491 5499 5499 5499 5500 5498 5501 5505 5510 5507 5502 5498 5495 5494 5493 5492 5491 5490 5489 5489 5489 5489 5490 5491 5491 5491 5491 5491 5491 5491 5490 5490 5490 5490 5490 5490 5489 5488
5458 5459 5459 5461 5473 5476 5481 5494 5493 5493 5494 5494 5496 5500 5497 5494 5492 5490 5486 5485 5484 5483 5482 5481 5479 5479 5480 5480 5481 5481 5482 5482 5482 5481 5481 5481 5481 5481 5481 5481 5480 5480 5479 5478
5449 5448 5443 5446 5456 5455 5487 5493 5492 5487 5487 5487 5487 5487 5486 5485 5483 5478 5476 5474 5473 5473 5472 5471 5470 5471 5471 5471 5472 5473 5473 5473 5473 5472 5472 5472 5471 5471 5471 5471 5470 5469 5468 5468
5447 5442 5434 5436 5441 5458 5472 5477 5476 5474 5474 5474 5474 5474 5473 5470 5468 5465 5466 5465 5464 5463 5463 5462 5462 5462 5463 5463 5463 5464 5464 5464 5464 5463 5463 5463 5463 5462 5462 5461 5460 5458 5458 5457
5435 5434 5429 5428 5436 5449 5461 5465 5468 5466 5460 5463 5461 5459 5458 5458 5454 5456 5456 5455 5454 5453 5452 5452 5452 5452 5453 5454 5454 5454 5453 5453 5454 5454 5453 5453 5452 5452 5451 5450 5448 5447 5446 5446
5419 5417 5419 5422 5428 5438 5445 5449 5455 5448 5448 5447 5446 5446 5445 5444 5445 5445 5444 5444 5443 5442 5442 5441 5441 5441 5442 5443 5443 5443 5443 5443 5443 5443 5443 5442 5442 5441 5440 5438 5437 5435 5434 5433
5412 5408 5408 5411 5414 5426 5431 5433 5431 5431 5430 5431 5432 5432 5431 5430 5432 5432 5432 5431 5431 5430 5430 5429 5429 5430 5431 5431 5432 5432 5432 5433 5433 5433 5432 5431 5431 5430 5428 5426 5424 5422 5421 5419
5401 5403 5404 5407 5412 5412 5413 5415 5416 5416 5415 5417 5417 5418 5419 5419 5418 5419 5418 5417 5417 5417 5417 5417 5417 5417 5418 5419 5419 5420 5421 5422 5422 5422 5421 5420 5419 5417 5416 5414 5412 5410 5408 5406
5388 5391 5390 5391 5396 5397 5398 5401 5402 5402 5402 5403 5404 5405 5407 5406 5405 5404 5404 5404 5404 5404 5404 5404 5404 5405 5405 5406 5407 5407 5409 5409 5409 5409 5408 5407 5406 5404 5403 5401 5400 5398 5396 5394
5376 5377 5377 5380 5384 5384 5387 5386 5388 5388 5389 5390 5391 5392 5392 5393 5392 5391 5390 5390 5390 5390 5390 5390 5390 5391 5392 5393 5394 5395 5396 5397 5396 5395 5394 5393 5392 5390 5389 5388 5387 5386 5385 5383
5363 5364 5365 5372 5372 5371 5373 5374 5375 5375 5375 5376 5376 5376 5377 5378 5378 5378 5377 5376 5376 5376 5377 5377 5377 5378 5379 5380 5382 5382 5383 5383 5383 5382 5381 5380 5378 5377 5375 5373 5373 5373 5372 5372